ELECTRON KICK STAGE R/B, 60085

Orbit data source: Space-Track

ELECTRON KICK STAGE R/B, 60085 is space debris in SSO originally from a launch on Thu, 20 Jun 2024 UTC via an Electron launch vehicle from the Rocket Lab Launch Complex (RLLC). Debris objects in space refer to the collection of defunct objects orbiting the Earth. Examples of debris include non-operational satellites, rocket bodies, and fragments generated from explosions, collisions, or faulty payload assembly.

Loading next visibility...
ELECTRON KICK STAGE R/B details
Identifier
60085, 2024-114G
Orbit
SSO
Last TLE update15 hours ago
Origin
Flag of USRocket Lab (US)
ManufacturerRocket Lab
MissionOperational spacecraft
Bus & MotorKICK STAGE, CURIE
Mass~50 kg wet, ~50 kg dry
Launch date (UTC)
2024-06-20 (6 months ago)
Launch vehicle
Electron
Launch site
Rocket Lab Launch Complex (RLLC)
Object type
Payload
Rocket body
Debris
Shape & HBRTrunc Cone, 1.4 m
Radar Cross Section0.760 m², Medium (>0.1 m² and < 1m²)

Expand to show TLE details & history

TLE from 15 hours ago
0 ELECTRON KICK STAGE R/B
1 60085U 24114G   24355.90437859  .00009824  00000-0  67828-3 0  9992
2 60085  98.0054  17.4428 0081076 139.8263 220.8994 15.03302006 27459
Epoch: 2024-12-20T21:42Z
Definitive object data (Epoch: 2024-12-20T21:42:18.31Z)
Latitude0.00004°
Longitude-38.09669°
Altitude602.474 km
Speed7.535 km/s
True Right ascension01h 09m 46s
True Declination0° 00' 00"
Sunlit
Object was in daylight at TLE epoch
Visualization TLE readout
Latitude77.89076°
Longitude-78.1468°
Altitude538.852 km
Speed7.617 km/s
Apparent Right ascension23h 14m 53s
Apparent Declination22° 54' 52"
Sunlit
Object is in daylight
Visualization observer readout
Local Sidereal Time11:28:16
Azimuth3.462° NNE
Elevation-27.092°
Doppler factor1
Orbital elements
Apogee altitude609.938 km
Perigee altitude497.536 km
Semi-major axis6,931.874 km
Eccentricity0.0081076
Inclination98.0054°
RAAN17.4428°
Arg. of periapsis139.8263°
True anomaly220.29575°
Mean anomaly220.8994°
Eccentric anomaly220.59711°
Mean motion3.76069 °/min
BSTAR0.00067828
Orbital period95.73 mins
Loading maneuver chart data...
Loading historical data...
Loading historical data...
Loading historical data...
Loading historical data...
Loading historical data...
Loading historical data...
Loading historical data...

ELECTRON KICK STAGE R/B Visibility forecast

Observer location: undefined°, undefined

Span
Click to sort rows by Start time (UTC) header in descending order
Start Az.
Max El. time (UTC)
Max El. Az.
Max El.
End time (UTC)
End Az.
7 mins2024-12-21 14:14:28.045Z24.737° NE2024-12-21 14:17:28.045Z73.219° E34.858°2024-12-21 14:21:28.045Z175.64° S
5 mins2024-12-22 01:00:28.045Z123.251° SE2024-12-22 01:03:28.045Z60.092° ENE25.316°2024-12-22 01:05:28.045Z20.301° NNE
4 mins2024-12-22 02:36:28.045Z236.758° WSW2024-12-22 02:37:28.045Z255.485° W18.512°2024-12-22 02:40:28.045Z308.717° NW
|